Regional Weather Roundup
Issued by NWS Charleston, SC

Current Version | Previous Version | Text Only | Print | Product List | Glossary Off
Versions: 1 2 3 4 5 6 7 8 9 10 11 12 13 14 15 16 17 18 19 20 21 22 23 24 25 26 27 28 29 30 31 32 33 34 35 36 37 38 39 40 41 42 43 44 45 46 47 48 49 50
000 ASUS42 KCHS 280326 RWRCHS REGIONAL WEATHER ROUNDUP NATIONAL WEATHER SERVICE CHARLESTON SC 1100 PM EDT FRI MAR 27 2015 NOTE: "FAIR" INDICATES FEW OR NO CLOUDS BELOW 12,000 FEET WITH NO SIGNIFICANT WEATHER AND/OR OBSTRUCTIONS TO VISIBILITY. NOT ALL STATIONS ARE QUALITY CONTROLLED BY THE NATIONAL WEATHER SERVICE. USE DATA WITH CAUTION...ESPECIALLY DEWPOINT OBSERVATIONS. SCZ027-030-031-034>040-042>050-280400- ...SOUTHEAST SOUTH CAROLINA... CITY SKY/WX TMP DP RH WIND PRES REMARKS N CHARLESTON CLOUDY 51 46 83 N10 29.85R WATERFRONT PRK N/A 52 N/A N/A N12 N/A MOUNT PLEASANT DRIZZLE 50 46 87 CALM 29.85R PINOPOLIS N/A 52 46 82 N13 29.78R MONCKS CORNER RAIN 50 46 87 NW3 29.86R SUMMERVILLE CLOUDY 50 46 87 N8 29.88R BEAUFORT MCAS CLOUDY 53 47 79 N8 29.86R BEAUFORT ARPT MOCLDY 54 48 82 CALM 29.88R HILTON HEAD IS CLOUDY 54 48 82 N8 29.89R WALTERBORO CLOUDY 50 45 81 NW8 29.90R ALLENDALE FAIR 50 45 81 N9 29.90R ...SOUTHERN MIDLANDS AND PEE DEE... CITY SKY/WX TMP DP RH WIND PRES REMARKS GEORGETOWN NOT AVBL KINGSTREE NOT AVBL ORANGEBURG CLOUDY 49 40 71 N7 29.89R BARNWELL FAIR 46 45 93 N7 29.91R AIKEN FAIR 43 39 87 CALM 29.93R MANNING HVY RAIN 46 36 66 NW5 29.87R COLUMBIA LGT RAIN 47 42 83 W5 29.87S SUMTER LGT RAIN 47 42 83 NW8 29.85R FLORENCE CLOUDY 47 43 86 N3 29.84R MYRTLE BEACH CLOUDY 48 43 81 N9 29.85R N MYRTLE BEACH CLOUDY 45 42 89 N6 29.83R $$ GAZ063-065-086>088-099>101-113>116-118-119-134>141-150-280400- ...SOUTHEAST GEORGIA... CITY SKY/WX TMP DP RH WIND PRES REMARKS SAVANNAH ARPT PTCLDY 53 34 48 W6 29.87R HUNTER AAF CLEAR 49 42 76 W7 29.85R FORT STEWART CLEAR 53 44 71 W7 29.87R STATESBORO MOCLDY 53 43 69 NE5 29.90R SYLVANIA MOCLDY 51 48 89 N5 29.90R CLAXTON FAIR 50 39 66 W7 29.91R ...CSRA...CENTRAL AND FAR SOUTHEAST GEORGIA... CITY SKY/WX TMP DP RH WIND PRES REMARKS THOMSON CLOUDY 47 46 94 CALM 29.97R AUGUSTA-BUSH MOCLDY 47 44 90 NE6 29.91R AUGUSTA-DANIEL MOCLDY 49 44 83 N5 29.91R SWAINSBORO CLOUDY 54 21 28 NW12 29.93R VIDALIA MOCLDY 54 37 54 NW5 29.92R EASTMAN CLOUDY 55 32 42 NW8 29.98R HAZLEHURST FAIR 52 36 54 W5 29.93R ALMA CLEAR 51 41 68 W5 29.92R WAYCROSS CLEAR 54 47 77 W7 29.94R JESUP FAIR 52 46 82 W6 29.91R BAXLEY FAIR 52 39 62 W5 29.92R BRUNSWICK PTCLDY 55 43 62 W10 29.91R SAINT SIMONS PTCLDY 55 45 68 W8 29.89R $$ SCZ027-028-034-036>038-045-046-048>050-GAZ119-141-280400- ...LAKE AND SUPPLEMENTAL COASTAL OBSERVATIONS... STATION/POSITION TIME TEMP WIND PRES WAVE SWELL AIR SEA DIR/SP/G HT/PER HT/PER/DIR (UTC) (F) (DEG/KT/KT) (MB) (FT/S) (FT/S/D) UPR LAKE MARION NOT AVBL WINYAH BAY 0245 48 30/ 3 1009.0R LAKE MURRAY 0300 46 CALM / 1 1011.5R ACE BASIN NERRS NOT AVBL FORT PULASKI 0212 59 62 280/ 12/ 13 1010.8R SAPELO ISLAND 0300 56 250/ 11 1012.0R $$ ANZ835-935-AMZ111-154-330-350-352-354-370-450-454-472-280400- ...C-MAN AND BUOY OBSERVATIONS... STATION/POSITION TIME TEMP WIND PRES WAVE SWELL AIR SEA DIR/SP/G HT/PER HT/PER/DIR (UTC) (F) (DEG/KT/KT) (MB) (FT/S) (FT/S/D) BUOY 41004 0250 55 69 330/ 19/ 23 1008.8R 6/ 6 2/14 BUOY 41008 0250 59 60 280/ 19/ 23 1010.9R 3/ 4 2/ 90/ 8 FOLLY BEACH CMAN 0300 52 350/ 9/ 12 1010.2R CAPERS NEARSHORE 0200 51 360/ 17/ 21 N/A FRIPP NEARSHORE 0200 56 10/ 14/ 16 1010.0R STATION/POSITION TIME TEMP WIND PRES WAVE SWELL AIR SEA DIR/SP/G HT/PER HT/PER/DIR (UTC) (F) (DEG/KT/KT) (MB) (FT/S) (FT/S/D) 5E ST. MARYS GA 0221 61 N/A 2/ 8 FRYING PAN BUOY 0250 52 65 360/ 21/ 29 1007.6R 8/ 6 2/ 20/13 BUOY 41025 NOT AVBL CAPE LOOKOUT NC 0300 44 360/ 17/ 22 1006.5S BUOY 41002 0250 70 69 210/ 23/ 29 1005.6F 10/ 8 BUOY 41010 0220 75 76 260/ 23/ 27 1010.1R ST AUGUSTINE FL 0300 58 60 300/ 8/ 11 1014.4R $$

USA.gov is the U.S. government's official web portal to all federal, state and local government web resources and services.